When you browse on this site, cookies collect data to enhance your experience and personalize the content and advertising you see.
Visit our Privacy Policy to learn more. By continuing to use the site, you agree to this use of cookies and data.
  • In Portugal
  • List of Countries
  • For 7 days
  • Water Temperature
  • Weather Map
  • Weather Widgets
  • user-avatar
    Login

    Hourly Weather Elizavetinskoe

    Today, 6 June, Saturday

    Time Temperature Precipitation Wind Pressure Humidity
    00:00 +11°C° 0 mm 0 mps 744 mmHg 85%
    01:00 +11°C° 0 mm 0 mps 744 mmHg 87%
    02:00 +11°C° 0 mm 0 mps 744 mmHg 88%
    03:00 +11°C° 0 mm 0 mps 744 mmHg 88%
    04:00 +11°C° 0 mm 0 mps 744 mmHg 90%
    05:00 +14°C° 0 mm 0 mps 744 mmHg 81%
    06:00 +16°C° 0 mm 0 mps 744 mmHg 72%
    07:00 +20°C° 0 mm 1 mps 744 mmHg 64%
    08:00 +22°C° 0 mm 1 mps 744 mmHg 57%
    09:00 +23°C° 0 mm 2 mps 744 mmHg 49%
    10:00 +24°C° 0 mm 2 mps 744 mmHg 42%
    11:00 +25°C° 0 mm 2 mps 744 mmHg 40%
    12:00 +25°C° 0 mm 2 mps 743 mmHg 38%
    13:00 +26°C° 0 mm 2 mps 743 mmHg 36%
    14:00 +26°C° 0 mm 2 mps 743 mmHg 36%
    15:00 +26°C° 0 mm 2 mps 743 mmHg 36%
    16:00 +26°C° 0 mm 2 mps 743 mmHg 36%
    17:00 +25°C° 0 mm 2 mps 742 mmHg 44%
    18:00 +24°C° 0 mm 2 mps 742 mmHg 51%
    19:00 +22°C° 0 mm 1 mps 742 mmHg 58%
    20:00 +20°C° 0 mm 1 mps 742 mmHg 63%
    21:00 +18°C° 0 mm 1 mps 742 mmHg 69%
    22:00 +15°C° 0 mm 1 mps 743 mmHg 74%
    23:00 +14°C° 0 mm 1 mps 743 mmHg 73%

    Tomorrow, 7 June, Sunday

    Time Temperature Precipitation Wind Pressure Humidity
    00:00 +13°C° 0 mm 1 mps 742 mmHg 73%
    01:00 +13°C° 0 mm 1 mps 742 mmHg 72%
    02:00 +13°C° 0 mm 1 mps 743 mmHg 72%
    03:00 +12°C° 0 mm 1 mps 743 mmHg 73%
    04:00 +12°C° 0 mm 1 mps 743 mmHg 73%
    05:00 +14°C° 0 mm 1 mps 743 mmHg 66%
    06:00 +18°C° 0 mm 1 mps 743 mmHg 59%
    07:00 +20°C° 0 mm 1 mps 743 mmHg 53%
    08:00 +21°C° 0 mm 2 mps 743 mmHg 46%
    09:00 +24°C° 0 mm 2 mps 743 mmHg 39%
    10:00 +25°C° 0 mm 3 mps 743 mmHg 33%
    11:00 +26°C° 0 mm 3 mps 743 mmHg 32%
    12:00 +27°C° 0 mm 3 mps 743 mmHg 31%
    13:00 +27°C° 0 mm 3 mps 743 mmHg 31%
    14:00 +27°C° 0 mm 3 mps 743 mmHg 31%
    15:00 +27°C° 0 mm 3 mps 743 mmHg 32%
    16:00 +28°C° 0 mm 3 mps 743 mmHg 33%
    17:00 +26°C° 0 mm 2 mps 743 mmHg 42%
    18:00 +25°C° 0 mm 2 mps 743 mmHg 51%
    19:00 +24°C° 0 mm 1 mps 742 mmHg 60%
    20:00 +22°C° 0 mm 1 mps 743 mmHg 64%
    21:00 +20°C° 0 mm 1 mps 743 mmHg 68%
    22:00 +18°C° 0 mm 1 mps 743 mmHg 72%
    23:00 +16°C° 0 mm 1 mps 743 mmHg 74%

    Day after tomorrow, 8 June, Monday

    Time Temperature Precipitation Wind Pressure Humidity
    00:00 +15°C° 0 mm 1 mps 743 mmHg 76%
    01:00 +15°C° 0 mm 1 mps 743 mmHg 78%
    02:00 +14°C° 0 mm 0 mps 743 mmHg 79%
    03:00 +13°C° 0 mm 0 mps 744 mmHg 80%
    04:00 +13°C° 0 mm 0 mps 744 mmHg 81%
    05:00 +16°C° 0 mm 0 mps 744 mmHg 73%
    06:00 +18°C° 0 mm 0 mps 744 mmHg 66%
    07:00 +21°C° 0 mm 0 mps 745 mmHg 59%
    08:00 +23°C° 0 mm 0 mps 745 mmHg 51%
    09:00 +25°C° 0 mm 0 mps 745 mmHg 44%
    10:00 +28°C° 0 mm 1 mps 745 mmHg 36%
    11:00 +29°C° 0 mm 1 mps 745 mmHg 35%
    12:00 +29°C° 0 mm 1 mps 745 mmHg 33%
    13:00 +30°C° 0 mm 1 mps 745 mmHg 31%
    14:00 +29°C° 0 mm 1 mps 745 mmHg 33%
    15:00 +29°C° 0 mm 1 mps 745 mmHg 34%
    16:00 +28°C° 0 mm 1 mps 745 mmHg 36%
    17:00 +27°C° 0 mm 1 mps 745 mmHg 43%
    18:00 +26°C° 0 mm 1 mps 745 mmHg 50%
    19:00 +25°C° 0 mm 1 mps 744 mmHg 58%
    20:00 +23°C° 0 mm 1 mps 745 mmHg 61%
    21:00 +21°C° 0 mm 1 mps 745 mmHg 64%
    22:00 +19°C° 0 mm 1 mps 745 mmHg 67%
    23:00 +18°C° 0 mm 1 mps 745 mmHg 69%

    9 June, Tuesday

    Time Temperature Precipitation Wind Pressure Humidity
    00:00 +16°C° 0 mm 1 mps 745 mmHg 71%
    01:00 +16°C° 0 mm 1 mps 746 mmHg 73%
    02:00 +16°C° 0 mm 1 mps 746 mmHg 73%
    03:00 +16°C° 0 mm 1 mps 746 mmHg 73%
    04:00 +16°C° 0 mm 1 mps 746 mmHg 73%
    05:00 +19°C° 0 mm 1 mps 747 mmHg 67%
    06:00 +21°C° 0 mm 1 mps 747 mmHg 61%
    07:00 +24°C° 0 mm 1 mps 747 mmHg 55%
    08:00 +25°C° 0 mm 1 mps 747 mmHg 49%
    09:00 +26°C° 0 mm 1 mps 747 mmHg 43%
    10:00 +28°C° 0 mm 2 mps 747 mmHg 37%
    11:00 +29°C° 0 mm 2 mps 747 mmHg 35%
    12:00 +29°C° 0 mm 2 mps 747 mmHg 33%
    13:00 +30°C° 0 mm 2 mps 747 mmHg 31%
    14:00 +30°C° 0 mm 2 mps 747 mmHg 33%
    15:00 +30°C° 0 mm 2 mps 747 mmHg 34%
    16:00 +29°C° 0 mm 2 mps 746 mmHg 35%
    17:00 +28°C° 0 mm 2 mps 746 mmHg 43%
    18:00 +27°C° 0 mm 2 mps 746 mmHg 51%
    19:00 +25°C° 0 mm 2 mps 746 mmHg 59%
    20:00 +23°C° 0 mm 2 mps 746 mmHg 62%
    21:00 +21°C° 0 mm 1 mps 746 mmHg 66%
    22:00 +20°C° 0 mm 1 mps 746 mmHg 69%
    23:00 +19°C° 0 mm 1 mps 746 mmHg 69%

    10 June, Wednesday

    Time Temperature Precipitation Wind Pressure Humidity
    00:00 +18°C° 0 mm 1 mps 746 mmHg 69%
    01:00 +18°C° 0 mm 1 mps 746 mmHg 69%
    02:00 +18°C° 0 mm 1 mps 746 mmHg 70%
    03:00 +16°C° 0 mm 1 mps 746 mmHg 71%
    04:00 +16°C° 0 mm 1 mps 746 mmHg 71%
    05:00 +19°C° 0 mm 1 mps 747 mmHg 65%
    06:00 +22°C° 0 mm 1 mps 747 mmHg 59%
    07:00 +24°C° 0 mm 1 mps 747 mmHg 53%
    08:00 +25°C° 0 mm 1 mps 747 mmHg 48%
    09:00 +27°C° 0 mm 2 mps 746 mmHg 43%
    10:00 +28°C° 0 mm 2 mps 746 mmHg 38%
    11:00 +29°C° 0 mm 2 mps 746 mmHg 37%
    12:00 +29°C° 0 mm 3 mps 746 mmHg 37%
    13:00 +29°C° 0 mm 3 mps 746 mmHg 36%
    14:00 +29°C° 0 mm 3 mps 746 mmHg 37%
    15:00 +29°C° 0 mm 3 mps 745 mmHg 38%
    16:00 +29°C° 0 mm 3 mps 745 mmHg 39%
    17:00 +28°C° 0 mm 3 mps 745 mmHg 46%
    18:00 +27°C° 0 mm 2 mps 745 mmHg 52%
    19:00 +26°C° 0 mm 2 mps 744 mmHg 59%
    20:00 +24°C° 0 mm 1 mps 744 mmHg 64%
    21:00 +22°C° 0 mm 1 mps 744 mmHg 69%
    22:00 +20°C° 0 mm 1 mps 745 mmHg 75%
    23:00 +19°C° 0 mm 1 mps 744 mmHg 76%

    11 June, Thursday

    Time Temperature Precipitation Wind Pressure Humidity
    00:00 +19°C° 0 mm 1 mps 744 mmHg 78%
    01:00 +18°C° 0 mm 1 mps 744 mmHg 80%
    02:00 +18°C° 0 mm 1 mps 744 mmHg 80%
    03:00 +18°C° 0 mm 1 mps 744 mmHg 80%
    04:00 +18°C° 0 mm 1 mps 744 mmHg 80%
    05:00 +20°C° 0 mm 1 mps 744 mmHg 73%
    06:00 +22°C° 0 mm 1 mps 744 mmHg 66%
    07:00 +24°C° 0 mm 2 mps 744 mmHg 59%
    08:00 +25°C° 0 mm 2 mps 743 mmHg 52%
    09:00 +27°C° 0 mm 2 mps 743 mmHg 46%
    10:00 +28°C° 0 mm 3 mps 743 mmHg 40%
    11:00 +29°C° 0 mm 3 mps 743 mmHg 38%
    12:00 +29°C° 0 mm 3 mps 742 mmHg 37%
    13:00 +30°C° 0 mm 4 mps 742 mmHg 35%
    14:00 +29°C° 0 mm 4 mps 741 mmHg 40%
    15:00 +27°C° 0 mm 4 mps 741 mmHg 45%
    16:00 +26°C° 0 mm 4 mps 740 mmHg 50%
    17:00 +25°C° 0.1 mm 4 mps 740 mmHg 55%
    18:00 +24°C° 0.1 mm 3 mps 740 mmHg 60%
    19:00 +22°C° 0.1 mm 3 mps 739 mmHg 65%
    20:00 +20°C° 0.3 mm 3 mps 739 mmHg 72%
    21:00 +19°C° 0.3 mm 3 mps 738 mmHg 78%
    22:00 +18°C° 0.3 mm 3 mps 738 mmHg 85%
    23:00 +17°C° 0 mm 3 mps 738 mmHg 86%
    Show more